DLH21X LFMN-EDDF

Flight info

Callsign DLH21X
Flight time N/A
Altitude 36000
Route BASIP8A BASIP DCT ANAKI DCT GEN DCT SRN DCT ABESI DCT LADOL T163 EMPAX EMPAX5B
Aircraft A320/M-SDE3FGHIRWY/LB1

Departure

Time N/A
Airport Nice-Côte d'Azur Airport (LFMN)

Arrival

Time 2026-04-16 21:46
Airport Frankfurt Main Airport (EDDF)
Time Latitude Longitude Altitude Speed Heading
2026-04-16 21:03 46.08006 9.04474 36004 ft 522 kts 359°
2026-04-16 21:03 46.11635 9.04389 35996 ft 522 kts 359°
2026-04-16 21:04 46.18918 9.04209 36004 ft 523 kts 359°
2026-04-16 21:04 46.26186 9.03907 36026 ft 522 kts 358°
2026-04-16 21:05 46.33453 9.03535 35996 ft 523 kts 358°
2026-04-16 21:05 46.40733 9.03185 35978 ft 524 kts 358°
2026-04-16 21:06 46.48038 9.02877 35989 ft 526 kts 358°
2026-04-16 21:06 46.55324 9.02580 35976 ft 529 kts 358°
2026-04-16 21:07 46.62701 9.02269 35981 ft 531 kts 358°
2026-04-16 21:07 46.70099 9.01940 35989 ft 532 kts 359°
2026-04-16 21:08 46.77499 9.01609 36033 ft 532 kts 358°
2026-04-16 21:08 46.84892 9.01283 36024 ft 531 kts 358°
2026-04-16 21:09 46.92278 9.00971 36022 ft 530 kts 359°
2026-04-16 21:09 46.99646 9.00655 36033 ft 529 kts 358°
2026-04-16 21:10 47.06950 9.00325 36022 ft 528 kts 358°
2026-04-16 21:10 47.14251 8.99978 36019 ft 526 kts 358°
2026-04-16 21:11 47.21565 8.99645 36044 ft 525 kts 358°
2026-04-16 21:11 47.28850 8.99320 36029 ft 523 kts 358°
2026-04-16 21:12 47.36120 8.99007 36017 ft 522 kts 358°
2026-04-16 21:12 47.43382 8.98688 36017 ft 522 kts 358°
2026-04-16 21:13 47.50635 8.98360 36020 ft 521 kts 358°
2026-04-16 21:13 47.57876 8.98029 36018 ft 520 kts 358°
2026-04-16 21:14 47.65061 8.97704 36019 ft 520 kts 358°
2026-04-16 21:14 47.72296 8.97378 36019 ft 520 kts 358°
2026-04-16 21:15 47.79525 8.97032 36019 ft 520 kts 358°
2026-04-16 21:15 47.86748 8.96697 36017 ft 520 kts 358°
2026-04-16 21:16 47.93987 8.96379 36012 ft 520 kts 358°
2026-04-16 21:16 48.01226 8.96057 36006 ft 521 kts 358°
2026-04-16 21:17 48.08469 8.95712 36007 ft 521 kts 358°
2026-04-16 21:17 48.15670 8.95397 36004 ft 521 kts
2026-04-16 21:18 48.22896 8.96278 36002 ft 521 kts
2026-04-16 21:18 48.30112 8.97367 36004 ft 521 kts
2026-04-16 21:18 48.33733 8.97912 35990 ft 505 kts
2026-04-16 21:19 48.36005 8.98256 36005 ft 487 kts
2026-04-16 21:19 48.39281 8.98753 36503 ft 455 kts
2026-04-16 21:19 48.42232 8.99231 37303 ft 402 kts
2026-04-16 21:19 48.44946 8.99675 36813 ft 391 kts
2026-04-16 21:20 48.47671 9.00091 35709 ft 395 kts
2026-04-16 21:20 48.50380 9.00491 35066 ft 387 kts
2026-04-16 21:20 48.53060 9.00885 34513 ft 391 kts
2026-04-16 21:20 48.55818 9.01279 33924 ft 405 kts
2026-04-16 21:21 48.58674 9.01691 33170 ft 419 kts
2026-04-16 21:21 48.61613 9.02129 32377 ft 428 kts
2026-04-16 21:21 48.64588 9.02634 31607 ft 432 kts
2026-04-16 21:21 48.67570 9.03279 30851 ft 435 kts
2026-04-16 21:22 48.70566 9.04026 30101 ft 438 kts
2026-04-16 21:22 48.73573 9.04815 29414 ft 440 kts
2026-04-16 21:22 48.76602 9.05608 28909 ft 443 kts
2026-04-16 21:22 48.79648 9.06384 28161 ft 445 kts
2026-04-16 21:23 48.82708 9.07138 27431 ft 447 kts
2026-04-16 21:23 48.85789 9.07878 26718 ft 450 kts
2026-04-16 21:23 48.88892 9.08600 26013 ft 452 kts
2026-04-16 21:23 48.92019 9.09189 25335 ft 454 kts
2026-04-16 21:24 48.95165 9.09650 24631 ft 456 kts
2026-04-16 21:24 48.98321 9.10038 23929 ft 451 kts
2026-04-16 21:24 49.01429 9.10400 23138 ft 447 kts
2026-04-16 21:24 49.04528 9.10773 22336 ft 447 kts
2026-04-16 21:25 49.07634 9.11171 21548 ft 449 kts
2026-04-16 21:25 49.10758 9.11602 20789 ft 452 kts
2026-04-16 21:25 49.13887 9.12052 20047 ft 451 kts
2026-04-16 21:25 49.17002 9.12510 19326 ft 448 kts
2026-04-16 21:26 49.20091 9.12965 18619 ft 444 kts
2026-04-16 21:26 49.23151 9.13411 17832 ft 440 kts
2026-04-16 21:26 49.26149 9.13845 17217 ft 437 kts
2026-04-16 21:26 49.29163 9.14446 16778 ft 437 kts
2026-04-16 21:27 49.32103 9.15473 16346 ft 427 kts 11°
2026-04-16 21:27 49.34959 9.16485 15920 ft 416 kts 11°
2026-04-16 21:27 49.37739 9.17477 15503 ft 405 kts 11°
2026-04-16 21:27 49.40451 9.18447 15091 ft 396 kts 11°
2026-04-16 21:28 49.43118 9.19399 14684 ft 393 kts 11°
2026-04-16 21:28 49.45782 9.20347 14282 ft 394 kts 11°
2026-04-16 21:28 49.48458 9.21298 13867 ft 395 kts 11°
2026-04-16 21:28 49.51134 9.22250 13406 ft 395 kts 11°
2026-04-16 21:29 49.53805 9.23200 12951 ft 386 kts 11°
2026-04-16 21:29 49.56342 9.24106 12512 ft 366 kts 11°
2026-04-16 21:29 49.58815 9.24988 12083 ft 363 kts 11°
2026-04-16 21:29 49.61266 9.25861 11655 ft 362 kts 11°
2026-04-16 21:30 49.63716 9.26732 11234 ft 362 kts 11°
2026-04-16 21:30 49.66178 9.27609 10816 ft 363 kts 11°
2026-04-16 21:30 49.68642 9.28488 10405 ft 364 kts 12°
2026-04-16 21:30 49.71109 9.29374 10221 ft 365 kts 12°
2026-04-16 21:31 49.73579 9.30272 10237 ft 365 kts 12°
2026-04-16 21:31 49.76052 9.31178 10239 ft 366 kts 12°
2026-04-16 21:31 49.78529 9.32087 10241 ft 366 kts 12°
2026-04-16 21:31 49.81015 9.33004 10238 ft 354 kts 12°
2026-04-16 21:32 49.83338 9.33869 10237 ft 334 kts 12°
2026-04-16 21:32 49.85520 9.34688 10241 ft 321 kts 12°
2026-04-16 21:32 49.87666 9.35498 10237 ft 313 kts 12°
2026-04-16 21:32 49.89739 9.36286 10048 ft 304 kts 12°
2026-04-16 21:33 49.91777 9.37061 9621 ft 296 kts 12°
2026-04-16 21:33 49.93738 9.37806 9181 ft 285 kts 12°
2026-04-16 21:33 49.95629 9.38524 8742 ft 275 kts 12°
2026-04-16 21:33 49.97460 9.39188 8306 ft 265 kts
2026-04-16 21:34 49.99233 9.39002 7878 ft 252 kts 340°
2026-04-16 21:34 50.00836 9.38025 7455 ft 245 kts 335°
2026-04-16 21:34 50.02374 9.36957 7228 ft 241 kts 334°
2026-04-16 21:34 50.03902 9.35874 7242 ft 242 kts 334°
2026-04-16 21:35 50.05441 9.34776 7050 ft 244 kts 334°
2026-04-16 21:35 50.06995 9.33664 6711 ft 244 kts 334°
2026-04-16 21:35 50.08527 9.32560 6231 ft 248 kts 334°
2026-04-16 21:35 50.10091 9.31427 5732 ft 246 kts 334°
2026-04-16 21:36 50.11623 9.30313 5255 ft 241 kts 334°
2026-04-16 21:36 50.13125 9.29212 5033 ft 232 kts 332°
2026-04-16 21:36 50.14339 9.27634 5021 ft 233 kts 302°
2026-04-16 21:36 50.14973 9.25289 5028 ft 233 kts 286°
2026-04-16 21:37 50.15407 9.22857 5025 ft 233 kts 284°
2026-04-16 21:37 50.15819 9.20408 5026 ft 233 kts 284°
2026-04-16 21:37 50.16225 9.17959 5028 ft 234 kts 284°
2026-04-16 21:37 50.16630 9.15511 5025 ft 233 kts 284°
2026-04-16 21:38 50.17034 9.13062 5024 ft 233 kts 284°
2026-04-16 21:38 50.17293 9.10573 5026 ft 233 kts 272°
2026-04-16 21:38 50.17203 9.08058 5031 ft 233 kts 262°
2026-04-16 21:38 50.16868 9.05591 5026 ft 233 kts 253°
2026-04-16 21:39 50.16351 9.03200 5021 ft 233 kts 250°
2026-04-16 21:39 50.15793 9.00827 5024 ft 233 kts 250°
2026-04-16 21:39 50.15235 8.98454 5023 ft 233 kts 250°
2026-04-16 21:39 50.14680 8.96086 5025 ft 233 kts 250°
2026-04-16 21:40 50.14125 8.93716 5024 ft 233 kts 250°
2026-04-16 21:40 50.13571 8.91353 5027 ft 233 kts 250°
2026-04-16 21:40 50.13016 8.88989 5028 ft 230 kts 250°
2026-04-16 21:40 50.12477 8.86696 4997 ft 219 kts 250°
2026-04-16 21:41 50.11959 8.84494 4781 ft 214 kts 250°
2026-04-16 21:41 50.11449 8.82326 4498 ft 213 kts 250°
2026-04-16 21:41 50.10938 8.80160 4206 ft 213 kts 250°
2026-04-16 21:41 50.10428 8.77999 3894 ft 213 kts 250°
2026-04-16 21:42 50.09917 8.75834 3617 ft 212 kts 249°
2026-04-16 21:42 50.09423 8.73747 3287 ft 198 kts 249°
2026-04-16 21:42 50.08959 8.71772 2874 ft 192 kts 250°
2026-04-16 21:42 50.08513 8.69832 2762 ft 188 kts 250°
2026-04-16 21:43 50.08068 8.67954 2569 ft 182 kts 249°
2026-04-16 21:43 50.07623 8.66133 2259 ft 176 kts 249°
2026-04-16 21:43 50.07212 8.64369 1913 ft 171 kts 249°
2026-04-16 21:43 50.06783 8.62614 1700 ft 168 kts 249°
2026-04-16 21:44 50.06410 8.61001 1493 ft 158 kts 250°
2026-04-16 21:44 50.06044 8.59454 1253 ft 148 kts 249°
2026-04-16 21:44 50.05667 8.57954 1057 ft 155 kts 251°
2026-04-16 21:44 50.05307 8.56391 839 ft 153 kts 250°
2026-04-16 21:45 50.04951 8.54915 640 ft 140 kts 250°
2026-04-16 21:45 50.04604 8.53480 459 ft 149 kts 251°
2026-04-16 21:45 50.04261 8.52052 358 ft 130 kts 251°
2026-04-16 21:45 50.03987 8.50887 325 ft 78 kts 250°
2026-04-16 21:46 50.03849 8.50415 321 ft 39 kts 232°
2026-04-16 21:46 50.03695 8.50198 320 ft 13 kts 211°
2026-04-16 21:46 50.03672 8.50188 321 ft 9 kts 187°
2026-04-16 21:46 50.03628 8.50269 325 ft 25 kts 89°
2026-04-16 21:47 50.03689 8.50540 327 ft 21 kts 70°
2026-04-16 21:47 50.03735 8.50732 332 ft 0 kts 69°
2026-04-16 21:47 50.03737 8.50740 328 ft 6 kts 69°
2026-04-16 21:47 50.03798 8.50994 331 ft 30 kts 70°
2026-04-16 21:48 50.03871 8.51303 332 ft 31 kts 69°
2026-04-16 21:48 50.03948 8.51622 335 ft 32 kts 70°
2026-04-16 21:48 50.04027 8.51947 334 ft 32 kts 68°
2026-04-16 21:48 50.04105 8.52271 346 ft 32 kts 69°
2026-04-16 21:49 50.04182 8.52589 354 ft 31 kts 69°
2026-04-16 21:49 50.04256 8.52903 360 ft 31 kts 70°
2026-04-16 21:49 50.04328 8.53213 365 ft 29 kts 69°
2026-04-16 21:49 50.04389 8.53489 375 ft 25 kts 77°
2026-04-16 21:50 50.04412 8.53767 375 ft 27 kts 83°
2026-04-16 21:50 50.04426 8.53985 375 ft 16 kts 83°
2026-04-16 21:50 50.04440 8.54169 375 ft 18 kts 83°
2026-04-16 21:50 50.04452 8.54387 372 ft 23 kts 90°
2026-04-16 21:51 50.04408 8.54646 367 ft 27 kts 125°
2026-04-16 21:51 50.04234 8.54817 357 ft 33 kts 161°
2026-04-16 21:51 50.04054 8.54920 354 ft 25 kts 158°
2026-04-16 21:51 50.03900 8.55008 351 ft 18 kts 161°
2026-04-16 21:52 50.03860 8.55156 354 ft 17 kts 72°
2026-04-16 21:52 50.03906 8.55350 349 ft 21 kts 69°
2026-04-16 21:52 50.03957 8.55569 354 ft 23 kts 69°
2026-04-16 21:52 50.04016 8.55810 353 ft 25 kts 69°
2026-04-16 21:53 50.04077 8.56063 353 ft 26 kts 71°
2026-04-16 21:53 50.04142 8.56332 361 ft 27 kts 71°
2026-04-16 21:53 50.04208 8.56609 357 ft 28 kts 70°
2026-04-16 21:53 50.04276 8.56797 362 ft 17 kts 28°
2026-04-16 21:54 50.04399 8.56843 361 ft 19 kts
2026-04-16 21:54 50.04541 8.56884 359 ft 22 kts 14°
2026-04-16 21:54 50.04659 8.56934 356 ft 13 kts
2026-04-16 21:54 50.04700 8.56863 360 ft 4 kts 289°
2026-04-16 21:55 50.04704 8.56846 362 ft 0 kts 294°
2026-04-16 21:55 50.04707 8.56837 361 ft 0 kts 293°